[[{"header":{"parameterUnit":"m.s-1","parameterCategory":1,"la1":30.2991,"la2":30.254,"lo1":-89.0895,"lo2":-89.0444,"dy":0.0017,"dx":0.0017,"nx":28,"ny":28,"refTime":"2024-07-09T21:00:00:Z","depth":0,"parameterNumber":2,"parameterNumberName":"U-component_of_WINDS"},"data":[0,0,0,0,0,0,0,0,0,0,0,0,0,0,0,0,0,0,0,0,0,0,0,0,0,0,0,0,0,0,0,0,0,0,0,0,0,0,0,0,0,0,0,0,0,0,0,0,0,0,0,0,0,0,0,0,0,0,4.9601,4.9603,0,4.9728,4.9729,4.9731,4.9684,4.9681,4.9678,4.9675,4.9804,4.981,4.9816,0,0,0,0,0,0,0,0,0,0,0,0,0,4.9314,4.9319,4.9601,4.9603,4.9604,4.9728,4.973,4.9731,4.9684,4.9681,4.9677,4.9674,4.9802,4.9809,4.9817,0,0,0,0,0,0,0,0,0,0,0,0,0,4.944,4.9321,4.9601,4.9596,4.9597,4.9727,4.973,4.9732,4.9685,4.9681,4.9676,4.9672,4.98,4.9809,4.9818,4.9961,0,0,4.9846,4.985,0,0,0,0,0,0,0,0,4.9432,4.945,4.9595,4.9596,4.9597,4.9686,4.9675,4.9809,4.9686,4.9651,4.9675,4.967,4.9768,4.978,4.9813,4.9967,4.9972,4.9846,4.9852,4.9856,4.9859,0,0,0,0,0,0,0,4.9424,4.9444,4.9651,4.9597,4.9599,4.9586,4.9599,4.97,4.9732,4.9654,4.9651,4.9667,4.9768,4.9804,4.9816,4.9974,4.9846,4.9854,4.986,4.9864,5.0246,5.0251,0,0,0,0,0,0,4.9415,4.9437,4.9647,4.9655,4.9503,4.9594,4.9609,4.9662,4.9731,4.9738,4.967,4.9664,4.9791,4.9805,4.982,4.9987,4.9856,4.9865,4.987,5.0242,5.0247,5.0252,0,0,0,0,0,0,4.9409,4.9434,4.9642,4.9545,4.9571,4.9604,4.9663,4.9666,4.9702,4.9743,4.9749,4.9701,4.9788,4.9807,4.9925,4.9991,4.9869,4.9877,5.0236,5.0243,5.025,5.0327,0,0,0,0,0,0,4.9401,4.9432,4.9488,4.9547,4.9576,4.9746,4.9668,4.9672,4.9719,4.9712,4.9774,4.978,4.9786,4.9911,4.9934,5.0002,4.9884,5.023,5.0239,5.0247,5.0318,5.0336,5.035,0,0,0,0,0,4.9391,4.9506,4.9491,4.9517,4.9647,4.975,4.9767,4.9771,4.9724,4.9779,4.9805,4.9778,4.9981,4.9924,4.9949,5.0021,5.0226,5.0237,5.0247,5.0311,5.0332,5.035,0,0,0,0,0,0,4.9455,4.9514,4.9498,4.9636,4.9688,4.9742,4.9812,4.9794,4.9861,4.9852,4.9854,4.9868,4.9988,5.0017,4.9952,5.016,5.0096,5.0112,5.0137,5.0157,5.0173,5.0162,4.9892,0,0,0,0,0,4.9485,4.9565,4.9612,4.9729,4.9756,4.978,4.9825,4.9823,4.9878,4.99,4.9934,4.9987,5.0062,5.0112,5.0184,5.0323,5.0333,5.0385,5.04,5.0413,5.0426,5.0496,5.0518,5.0287,5.0287,5.0286,0,0,4.9548,4.959,4.964,4.9742,4.9783,4.9863,4.9799,4.9888,4.9947,4.9913,5.0025,5.0052,5.0111,5.0239,5.0297,5.0266,5.0492,5.0427,5.0437,5.0442,5.0509,5.0531,5.0551,5.0294,5.0292,5.0291,0,0,4.9702,4.9745,4.9844,4.9885,4.9947,4.9961,4.9985,5.0041,5.0057,5.017,5.0145,5.0215,5.0346,5.0387,5.0426,5.0592,5.0568,5.0616,5.0698,5.0767,5.0785,5.0801,5.0856,5.0876,5.0629,5.063,5.063,0,4.9772,4.9894,4.9897,4.9987,5.0031,5.0004,5.0102,5.0142,5.0224,5.0254,5.0219,5.0379,5.0418,5.0552,5.0592,5.0626,5.065,5.0607,5.0782,5.0798,5.0813,5.0865,5.0887,5.0634,5.0634,5.0633,5.0633,0,4.9974,5.0058,5.0131,5.0209,5.0262,5.0356,5.0371,5.0424,5.0417,5.0435,5.0547,5.0592,5.067,5.0703,5.0699,5.0836,5.0814,5.0781,5.0716,5.084,5.0889,5.0909,5.0642,5.064,5.0638,5.0637,0,0,5.0172,5.0249,5.0275,5.0308,5.0373,5.0437,5.0529,5.0605,5.0647,5.0705,5.0779,5.0889,5.0857,5.09,5.09,5.0961,5.1084,5.0919,5.0921,5.0944,5.1232,5.1253,5.1277,5.107,5.1074,5.1077,5.1225,0,5.0328,5.0489,5.0493,5.0639,5.0714,5.0688,5.0767,5.0814,5.0832,5.0897,5.0918,5.0993,5.0949,5.0974,5.1033,5.1056,5.1141,5.1046,5.1135,5.1138,5.1117,5.1303,5.1327,5.1465,5.1245,5.1248,5.1251,0,5.0532,5.0593,5.0746,5.0796,5.0827,5.0899,5.0966,5.103,5.1081,5.109,5.1137,5.1127,5.1217,5.1152,5.1274,5.1209,5.1246,5.1263,5.1268,5.1273,5.1199,5.1309,5.151,5.1529,5.1282,5.1279,5.1277,0,5.0654,5.0776,5.0882,5.0912,5.0974,5.1023,5.1051,5.1099,5.1143,5.1202,5.1229,5.1299,5.1336,5.1388,5.1396,5.1348,5.1517,5.1454,5.1524,5.1523,5.1558,5.1555,5.1763,5.1589,5.1588,5.1588,5.1588,0,5.0826,5.0919,5.0937,5.1002,5.1104,5.1108,5.1209,5.1233,5.1275,5.1341,5.1325,5.1388,5.1396,5.1461,5.1467,5.1564,5.1583,5.159,5.159,5.1589,5.1587,5.161,5.1599,5.1594,5.1592,5.1591,5.159,0,5.0979,5.0995,5.1108,5.1157,5.1171,5.1244,5.1285,5.1345,5.1361,5.1446,5.1466,5.1491,5.1566,5.1579,5.1668,5.1672,5.1787,5.178,5.1769,5.1767,5.1834,5.1826,5.2061,5.209,5.1901,5.1903,5.1905,0,5.1085,5.1156,5.1211,5.1255,5.1285,5.1356,5.1399,5.1405,5.1451,5.1513,5.1565,5.1638,5.1696,5.1816,5.1841,5.1908,5.1899,5.1977,5.1909,5.1904,5.1894,5.1888,5.1893,5.1989,5.1991,5.1992,5.1994,0,5.127,5.1273,5.1338,5.1404,5.1456,5.1509,5.1559,5.1595,5.1607,5.1659,5.1735,5.178,5.1869,5.194,5.2005,5.2032,5.2014,5.2015,5.2034,5.2032,5.2021,5.2023,5.18,5.2009,5.2008,5.2006,5.2006,5.2005,5.1399,5.1459,5.1506,5.1577,5.1614,5.166,5.1718,5.1741,5.1804,5.1876,5.1876,5.1958,5.2004,5.209,5.2121,5.2183,5.2158,5.2187,5.2193,5.2199,5.2203,5.2014,5.2196,5.2196,5.2195,5.2195,5.2195,0,5.1578,5.1607,5.1672,5.1741,5.1796,5.1775,5.1828,5.1874,5.1946,5.1991,5.2048,5.2133,5.2201,5.2231,5.2297,5.2341,5.2334,5.2358,5.2352,5.2358,5.2224,5.2199,5.2362,5.2362,5.2362,5.2362,5.2362,5.2362,5.1678,5.1776,5.1785,5.19,5.1928,5.2008,5.2039,5.208,5.2115,5.221,5.2266,5.2286,5.2323,5.2391,5.2452,5.2459,5.2482,5.2508,5.2511,5.2385,5.2368,5.2352,5.2327,5.2515,5.2515,5.2639,5.264,5.2641]},{"header":{"parameterUnit":"m.s-1","parameterCategory":1,"la1":30.2991,"la2":30.254,"lo1":-89.0895,"lo2":-89.0444,"dy":0.0017,"dx":0.0017,"nx":28,"ny":28,"refTime":"2024-07-09T21:00:00:Z","depth":0,"parameterNumber":3,"parameterNumberName":"V-component_of_WINDS"},"data":[0,0,0,0,0,0,0,0,0,0,0,0,0,0,0,0,0,0,0,0,0,0,0,0,0,0,0,0,0,0,0,0,0,0,0,0,0,0,0,0,0,0,0,0,0,0,0,0,0,0,0,0,0,0,0,0,0,0,3.7071,3.7072,0,3.7124,3.7124,3.7125,3.7092,3.709,3.7089,3.7087,3.7138,3.7141,3.7143,0,0,0,0,0,0,0,0,0,0,0,0,0,3.6939,3.6942,3.7071,3.7072,3.7073,3.7123,3.7124,3.7125,3.7092,3.709,3.7088,3.7087,3.7137,3.714,3.7144,0,0,0,0,0,0,0,0,0,0,0,0,0,3.6995,3.6943,3.7071,3.7063,3.7062,3.7123,3.7124,3.7125,3.7093,3.709,3.7088,3.7086,3.7136,3.714,3.7144,3.7216,0,0,3.7157,3.7159,0,0,0,0,0,0,0,0,3.6992,3.6999,3.7063,3.7063,3.7063,3.7099,3.7096,3.7155,3.7093,3.7081,3.7087,3.7085,3.7127,3.7131,3.7146,3.7218,3.722,3.7157,3.716,3.7161,3.7163,0,0,0,0,0,0,0,3.6988,3.6997,3.7092,3.7064,3.7064,3.7055,3.706,3.7107,3.7116,3.7082,3.708,3.7086,3.7126,3.7142,3.7147,3.7221,3.7157,3.7161,3.7163,3.7165,3.7352,3.7355,0,0,0,0,0,0,3.6985,3.6994,3.709,3.7093,3.7021,3.7059,3.7065,3.709,3.7115,3.7117,3.7088,3.7085,3.7136,3.7142,3.7149,3.7233,3.7161,3.7165,3.7168,3.735,3.7353,3.7355,0,0,0,0,0,0,3.6982,3.6994,3.7088,3.7043,3.7054,3.7064,3.7092,3.7092,3.7108,3.712,3.7121,3.7103,3.7135,3.7143,3.7199,3.7234,3.7167,3.7171,3.7347,3.7351,3.7354,3.7403,0,0,0,0,0,0,3.6979,3.6993,3.7022,3.7044,3.7057,3.7139,3.7094,3.7095,3.7116,3.7111,3.7135,3.7136,3.7133,3.7193,3.7203,3.7239,3.7174,3.7344,3.7348,3.7353,3.7398,3.7408,3.7416,0,0,0,0,0,3.6974,3.7033,3.7023,3.7035,3.7093,3.7141,3.7148,3.7145,3.7119,3.7146,3.7154,3.7136,3.7229,3.7199,3.721,3.7248,3.7341,3.7347,3.7353,3.7394,3.7406,3.7416,0,0,0,0,0,0,3.7014,3.7036,3.7025,3.7093,3.7116,3.7136,3.7171,3.7158,3.7187,3.7182,3.7175,3.718,3.7239,3.7249,3.7215,3.7317,3.7281,3.7289,3.7309,3.732,3.7329,3.7325,3.7178,0,0,0,0,0,3.7031,3.7069,3.7086,3.7144,3.7156,3.7162,3.7182,3.7178,3.72,3.7209,3.7221,3.7242,3.7276,3.7299,3.7331,3.74,3.7403,3.7431,3.744,3.7447,3.7454,3.749,3.7501,3.7374,3.7374,3.7374,0,0,3.7065,3.7082,3.7107,3.7153,3.7169,3.7208,3.717,3.7213,3.7241,3.7215,3.7269,3.7278,3.7302,3.7364,3.7392,3.7374,3.749,3.7454,3.746,3.7463,3.7496,3.7509,3.7519,3.7378,3.7377,3.7376,0,0,3.7148,3.7166,3.7216,3.7233,3.7259,3.7262,3.7274,3.7296,3.7301,3.7355,3.7337,3.7369,3.7428,3.7445,3.7462,3.755,3.7534,3.7561,3.7607,3.7642,3.7652,3.7661,3.7691,3.7702,3.7568,3.7568,3.7568,0,3.7188,3.7247,3.7243,3.7287,3.7307,3.7286,3.7336,3.7353,3.7387,3.7401,3.7381,3.7453,3.7468,3.7533,3.7555,3.7569,3.7581,3.7558,3.7651,3.766,3.7668,3.7697,3.7709,3.7571,3.757,3.757,3.757,0,3.7294,3.7334,3.7371,3.7406,3.743,3.7477,3.7478,3.7503,3.7496,3.7501,3.7555,3.7571,3.7606,3.7621,3.7614,3.7685,3.7673,3.7652,3.7615,3.7684,3.771,3.7722,3.7575,3.7574,3.7573,3.7572,0,0,3.7403,3.7435,3.7448,3.7463,3.749,3.7521,3.7565,3.76,3.7621,3.7645,3.7681,3.7731,3.7712,3.7731,3.7725,3.7756,3.7823,3.7731,3.7731,3.7747,3.7901,3.7916,3.7929,3.7813,3.7815,3.7816,3.7898,0,3.7487,3.7567,3.7564,3.7637,3.7674,3.7654,3.7693,3.7713,3.7718,3.7749,3.7754,3.779,3.7762,3.7773,3.7802,3.7809,3.7854,3.7803,3.7845,3.7847,3.7839,3.7943,3.7959,3.8036,3.7909,3.7911,3.7912,0,3.7596,3.7624,3.7702,3.7722,3.7737,3.7772,3.7803,3.7833,3.7854,3.7856,3.7876,3.7866,3.791,3.7872,3.7931,3.7897,3.7914,3.7919,3.7922,3.7925,3.7883,3.7948,3.806,3.8072,3.7929,3.7927,3.7926,0,3.7666,3.7724,3.7778,3.7791,3.7816,3.7841,3.7852,3.7872,3.7892,3.7918,3.7931,3.7962,3.7979,3.8002,3.8,3.7973,3.806,3.8022,3.8061,3.8061,3.808,3.8079,3.8196,3.8092,3.8092,3.8092,3.8091,0,3.776,3.7808,3.781,3.7843,3.7895,3.789,3.7942,3.7951,3.7968,3.8001,3.7985,3.8016,3.8012,3.8042,3.8041,3.8089,3.8097,3.8099,3.8097,3.81,3.8099,3.811,3.8105,3.8095,3.8094,3.8094,3.8093,0,3.7848,3.7851,3.7908,3.7927,3.7933,3.797,3.7986,3.8016,3.802,3.8062,3.8071,3.8077,3.8112,3.8113,3.8153,3.8151,3.8211,3.8204,3.8204,3.8202,3.8241,3.8237,3.8368,3.8385,3.8271,3.8273,3.8273,0,3.7907,3.7943,3.7966,3.7987,3.8,3.8035,3.8056,3.8052,3.8074,3.8101,3.8128,3.8162,3.8189,3.8246,3.8253,3.8283,3.8276,3.832,3.828,3.8281,3.8275,3.8273,3.8276,3.8327,3.8329,3.833,3.8331,0,3.8011,3.801,3.8041,3.8073,3.8098,3.8123,3.8145,3.8164,3.8162,3.8188,3.8224,3.8245,3.8286,3.8319,3.8348,3.8358,3.8344,3.8343,3.8354,3.8356,3.8354,3.8354,3.8224,3.834,3.8339,3.8338,3.8338,3.8337,3.8085,3.8116,3.8137,3.8171,3.8188,3.8209,3.8239,3.8246,3.8277,3.831,3.8306,3.8346,3.8365,3.8403,3.8415,3.8446,3.843,3.8446,3.8449,3.8453,3.8457,3.835,3.8451,3.8451,3.845,3.845,3.845,0,3.8187,3.8199,3.8232,3.8264,3.8291,3.8276,3.83,3.8323,3.8359,3.8378,3.8405,3.8446,3.8478,3.8487,3.8518,3.854,3.8535,3.8549,3.8546,3.8549,3.8469,3.8457,3.8553,3.8553,3.8553,3.8553,3.8553,3.8553,3.8243,3.8295,3.8297,3.8355,3.8367,3.8407,3.8421,3.844,3.8456,3.8502,3.8529,3.8536,3.855,3.8582,3.861,3.8612,3.8624,3.864,3.8639,3.8565,3.8554,3.8545,3.8533,3.8643,3.8643,3.8716,3.8717,3.8717]}]]